Find Starlink 11226

NORAD ID: 60907 Int'l Des: 2024-154 Owner: SPXS Country: US Constellation: starlink operational
LEOCIRCULAR

实时位置

正在加载3D地球...

关于 Starlink 11226

正在加载描述...

即将过境

Passes for default location (London). Set your location on the main map for personalized predictions.

高度历史

Loading altitude history...

两行轨道根数

1 60907U 24154E 26134.28131428 .00000999 00000-0 13100-4 0 9999
2 60907 53.1593 168.1154 0001172 83.2880 276.8271 15.69712832 98819
Epoch: May 14, 2026 • Age: 7 hours

当前状态

高度 379.0 km
速度 7.68 km/s
星下点 -53.31°S, 6.59°W
发射日期 Aug 31, 2024
运行时间 1.7 years
类型 internet

技术详情

分类 Payload
质量 960.00 kg
干质量 910.00 kg
总质量 960.00 kg
长度 0.30 m
直径 4.10 m
跨度 29.00 m
形状 Box + pan
制造商 SPXS
平台类型 Starlink V2MD
阶段状态 In Orbit
所有者/国家 SPXS/US

Most Searched